TimeEDT,TemperatureF,Dew PointF,Humidity,Sea Level PressureIn,VisibilityMPH,Wind Direction,Wind SpeedMPH,Gust SpeedMPH,PrecipitationIn,Events,Conditions,WindDirDegrees,DateUTC
12:15 AM,42.8,41.0,93,30.17,10.0,Calm,Calm,-,N/A,,Clear,0,2012-10-08 04:15:00
12:35 AM,42.8,40.3,91,30.17,10.0,East,3.5,-,N/A,,Clear,90,2012-10-08 04:35:00
12:55 AM,42.8,40.3,91,30.16,10.0,East,3.5,-,N/A,,Clear,90,2012-10-08 04:55:00
1:15 AM,42.3,39.9,91,30.16,10.0,ESE,5.8,-,N/A,,Clear,110,2012-10-08 05:15:00
1:35 AM,42.3,40.3,93,30.15,1.8,ESE,5.8,-,0.01,,Overcast,110,2012-10-08 05:35:00
1:55 AM,42.4,40.6,93,30.13,0.8,East,6.9,-,0.01,,Overcast,90,2012-10-08 05:55:00
2:15 AM,42.8,41.0,93,30.15,2.0,East,4.6,-,N/A,,Overcast,100,2012-10-08 06:15:00
2:35 AM,42.3,40.6,94,30.16,7.0,East,3.5,-,N/A,,Scattered Clouds,90,2012-10-08 06:35:00
2:55 AM,42.3,40.6,94,30.16,10.0,Calm,Calm,-,N/A,,Clear,0,2012-10-08 06:55:00
3:15 AM,42.1,40.5,94,30.16,10.0,ENE,4.6,-,N/A,,Mostly Cloudy,70,2012-10-08 07:15:00
3:35 AM,42.8,39.9,90,30.16,10.0,ENE,3.5,-,N/A,,Overcast,70,2012-10-08 07:35:00
3:55 AM,43.0,39.4,87,30.16,10.0,East,5.8,-,N/A,,Overcast,100,2012-10-08 07:55:00
4:15 AM,42.8,39.0,86,30.15,10.0,ENE,5.8,-,N/A,,Overcast,60,2012-10-08 08:15:00
4:35 AM,43.3,38.8,84,30.17,10.0,East,3.5,-,N/A,,Overcast,90,2012-10-08 08:35:00
4:55 AM,43.9,39.4,84,30.17,10.0,East,3.5,-,N/A,,Overcast,100,2012-10-08 08:55:00
5:15 AM,43.9,39.7,85,30.16,10.0,East,5.8,-,N/A,,Overcast,100,2012-10-08 09:15:00
5:35 AM,43.9,39.2,84,30.15,10.0,East,9.2,-,N/A,,Overcast,100,2012-10-08 09:35:00
5:55 AM,44.1,39.2,83,30.14,10.0,East,9.2,-,N/A,,Overcast,100,2012-10-08 09:55:00
6:15 AM,43.9,39.2,84,30.14,10.0,East,11.5,-,N/A,,Mostly Cloudy,100,2012-10-08 10:15:00
6:35 AM,44.2,38.3,80,30.15,10.0,East,8.1,-,N/A,,Mostly Cloudy,80,2012-10-08 10:35:00
6:55 AM,44.4,37.9,78,30.16,10.0,NE,4.6,-,N/A,,Overcast,50,2012-10-08 10:55:00
7:15 AM,43.7,37.9,80,30.16,10.0,NE,6.9,-,N/A,,Overcast,50,2012-10-08 11:15:00
7:35 AM,44.2,37.6,77,30.15,10.0,East,9.2,-,N/A,,Overcast,80,2012-10-08 11:35:00
7:55 AM,44.8,37.4,75,30.16,10.0,East,9.2,-,N/A,,Overcast,90,2012-10-08 11:55:00
8:15 AM,45.1,37.4,74,30.17,10.0,East,10.4,-,N/A,,Overcast,90,2012-10-08 12:15:00
8:35 AM,45.5,37.0,72,30.16,10.0,East,12.7,-,N/A,,Overcast,100,2012-10-08 12:35:00
8:55 AM,45.7,36.7,71,30.17,10.0,East,11.5,18.4,N/A,,Overcast,100,2012-10-08 12:55:00
9:15 AM,46.0,36.7,70,30.17,10.0,East,10.4,-,N/A,,Overcast,100,2012-10-08 13:15:00
9:35 AM,46.0,36.5,69,30.17,10.0,East,11.5,16.1,N/A,,Overcast,90,2012-10-08 13:35:00
9:55 AM,46.2,36.5,69,30.18,10.0,East,8.1,-,N/A,,Overcast,90,2012-10-08 13:55:00
10:15 AM,46.6,36.5,68,30.18,10.0,East,9.2,-,N/A,,Overcast,80,2012-10-08 14:15:00
10:35 AM,46.6,36.3,67,30.18,10.0,ENE,8.1,-,N/A,,Overcast,70,2012-10-08 14:35:00
10:55 AM,46.8,37.8,71,30.19,10.0,East,8.1,-,N/A,,Overcast,80,2012-10-08 14:55:00
11:15 AM,46.8,37.4,70,30.20,10.0,ENE,5.8,-,N/A,,Overcast,60,2012-10-08 15:15:00
11:35 AM,46.6,38.1,72,30.21,10.0,Calm,Calm,-,N/A,,Overcast,0,2012-10-08 15:35:00
12:15 PM,46.4,39.4,77,30.22,10.0,East,4.6,-,N/A,Rain,Rain,90,2012-10-08 16:15:00
12:35 PM,46.8,40.8,80,30.18,10.0,East,8.1,-,N/A,Rain,Light Rain,100,2012-10-08 16:35:00
12:55 PM,46.6,39.7,77,30.19,10.0,ESE,8.1,-,N/A,,Overcast,120,2012-10-08 16:55:00
1:15 PM,46.0,39.6,78,30.19,10.0,East,8.1,-,N/A,,Light Drizzle,80,2012-10-08 17:15:00
1:35 PM,46.0,40.6,81,30.18,4.0,East,8.1,-,0.01,Rain,Rain,80,2012-10-08 17:35:00
1:55 PM,46.0,41.9,85,30.18,4.0,East,6.9,-,0.01,Rain,Light Rain,100,2012-10-08 17:55:00
2:15 PM,46.0,42.1,86,30.17,10.0,East,8.1,-,N/A,,Light Drizzle,100,2012-10-08 18:15:00
2:35 PM,45.9,41.7,85,30.17,10.0,East,6.9,-,0.01,Rain,Light Rain,90,2012-10-08 18:35:00
2:55 PM,46.4,42.3,85,30.16,7.0,East,5.8,-,0.01,,Light Drizzle,80,2012-10-08 18:55:00
3:15 PM,46.8,42.8,86,30.16,10.0,ESE,9.2,-,0.01,,Light Drizzle,110,2012-10-08 19:15:00
3:55 PM,47.3,42.3,83,30.15,10.0,East,6.9,-,0.02,,Overcast,100,2012-10-08 19:55:00
4:15 PM,47.8,42.8,83,30.14,10.0,ESE,8.1,-,N/A,,Overcast,110,2012-10-08 20:15:00
4:35 PM,47.8,42.3,81,30.14,10.0,ESE,6.9,-,0.01,,Overcast,120,2012-10-08 20:35:00
4:55 PM,47.7,42.1,81,30.14,10.0,ESE,4.6,-,0.01,,Overcast,110,2012-10-08 20:55:00
5:15 PM,47.7,42.1,81,30.14,10.0,East,4.6,-,N/A,Rain,Light Rain,80,2012-10-08 21:15:00
5:35 PM,48.0,42.4,81,30.14,10.0,East,4.6,-,0.01,,Overcast,100,2012-10-08 21:35:00
5:55 PM,48.2,42.4,80,30.13,10.0,East,6.9,-,0.01,,Overcast,100,2012-10-08 21:55:00
6:15 PM,48.2,41.9,79,30.14,10.0,East,4.6,-,0.01,,Overcast,80,2012-10-08 22:15:00
6:35 PM,47.7,42.4,82,30.14,10.0,ENE,3.5,-,0.01,,Overcast,60,2012-10-08 22:35:00
6:55 PM,47.5,42.8,84,30.14,10.0,Calm,Calm,-,0.01,,Overcast,0,2012-10-08 22:55:00
7:15 PM,47.3,42.8,84,30.14,10.0,Calm,Calm,-,N/A,,Overcast,0,2012-10-08 23:15:00
7:35 PM,47.3,42.8,84,30.14,10.0,Calm,Calm,-,0.01,,Overcast,0,2012-10-08 23:35:00
7:55 PM,47.3,42.8,84,30.15,10.0,Calm,Calm,-,0.01,,Overcast,0,2012-10-08 23:55:00
8:15 PM,47.1,42.8,85,30.14,10.0,East,3.5,-,N/A,,Overcast,80,2012-10-09 00:15:00
8:35 PM,46.9,43.0,86,30.15,10.0,ENE,4.6,-,N/A,,Overcast,70,2012-10-09 00:35:00
8:55 PM,46.9,43.2,87,30.15,10.0,East,4.6,-,0.01,,Overcast,80,2012-10-09 00:55:00
9:15 PM,47.3,43.2,86,30.15,10.0,ENE,3.5,-,N/A,,Overcast,70,2012-10-09 01:15:00
9:35 PM,47.1,42.8,85,30.15,10.0,East,3.5,-,N/A,,Overcast,80,2012-10-09 01:35:00
10:15 PM,46.9,42.3,84,30.16,10.0,ESE,5.8,-,N/A,,Overcast,110,2012-10-09 02:15:00
10:35 PM,46.8,41.9,83,30.16,10.0,East,6.9,-,N/A,,Overcast,90,2012-10-09 02:35:00
10:55 PM,46.6,41.9,84,30.16,10.0,East,6.9,-,N/A,,Overcast,80,2012-10-09 02:55:00
11:15 PM,46.6,41.7,83,30.16,10.0,East,6.9,-,N/A,,Overcast,100,2012-10-09 03:15:00
11:35 PM,46.6,41.9,84,30.16,10.0,East,4.6,-,N/A,,Overcast,90,2012-10-09 03:35:00